Location: Maiden
(35.5760°N, 81.2120°W)
Time: 04:59:38
(UTC-05:00)

Envisat - Visible Passes

Search period start: 17 February 2019 00:00
Search period end: 27 February 2019 00:00
Orbit: 764 x 766 km, 98.2° (Epoch: 16 February)

Date Brightness Start Highest point End Pass type
(mag) Time Alt. Az. Time Alt. Az. Time Alt. Az.
17 Feb 2.9 19:02:13 10° SSE 19:07:16 75° ENE 19:12:21 10° N visible
18 Feb 5.2 20:05:34 10° SSW 20:09:41 25° W 20:13:50 10° NW visible
19 Feb 6.4 06:39:33 10° ENE 06:42:04 14° E 06:44:36 10° ESE visible
19 Feb 3.6 19:27:48 10° S 19:32:47 59° W 19:37:49 10° NNW visible
20 Feb 3.0 18:51:08 10° SSE 18:56:06 58° ENE 19:01:05 10° N visible
20 Feb 6.0 20:33:00 10° WSW 20:35:25 13° W 20:37:52 10° WNW visible
21 Feb 4.8 19:53:55 10° SSW 19:58:24 32° W 20:02:57 10° NW visible
22 Feb 6.8 06:30:13 10° E 06:30:45 10° E 06:31:16 10° E visible
22 Feb 3.2 19:16:30 10° S 19:21:34 77° WSW 19:26:40 10° NNW visible
23 Feb 3.3 18:40:07 10° SE 18:44:55 45° ENE 18:49:45 10° N visible
23 Feb 5.7 20:20:47 10° SW 20:24:07 18° W 20:27:28 10° NW visible
24 Feb 4.3 19:42:23 10° SSW 19:47:09 41° W 19:51:57 10° NNW visible
25 Feb 2.9 19:05:18 10° SSE 19:10:22 83° ENE 19:15:28 10° N visible
26 Feb 5.4 20:08:53 10° SW 20:12:50 23° W 20:16:47 10° NW visible
